Weather in Antipolo

Philippines     14°34′51″N   121°10′55″E
temp.,
°C
wind,
m/s
gust,
m/s
humid.,
%
clouds,
%
prec.,
mm/h
press.,
hPa
HPBL,
m
22 january, sat
sat2223:00+24ene368334 0.0 1012387
02:00+23ene368512 0.0 1011309
05:00+23ne23857 0.0 1011133
08:00+25ene377844 0.3 1013649
11:00+27e8107126 0.3 10131046
14:00+28e89675 0.3 10101045
17:00+27e710715 0.1 1010724
20:00+24ene49829 0.1 1012532
23 january, sun
sun2323:00+24e49837 0.1 1012566
02:00+24ene378577 0.1 1011523
05:00+23e368590 0.0 1010372
08:00+25ene487588 0.0 1012704
11:00+28e796464 0.0 10121267
14:00+29e786057 0.0 1009913
17:00+27e68685 0.0 1009752
20:00+24ene47825 0.0 1011341
24 january, mon
mon2423:00+23e348469 0.0 1011171
02:00+23ene238511 0.0 1010138
05:00+22ne238521 0.0 1010132
08:00+24ene2378100 0.0 1011311
11:00+28ene4564100 0.0 10111125
14:00+30ene465785 0.0 1008683
17:00+28e5663100 0.0 1008598
20:00+24e3479100 0.0 1010230
25 january, tue
tue2523:00+23ene33835 0.0 1010150
02:00+23ene228563 0.0 1009124
05:00+24ene018492 0.0 1008159
08:00+25nne1379100 0.0 1010409
11:00+26ne2877100 0.1 1010917
14:00+25ene2586100 2.0 1007466
17:00+25ene2685100 1.2 1007540
20:00+25ene41085100 1.6 1009743
26 january, wed
wed2623:00+25ene3786100 0.8 1008494
02:00+25ne3787100 1.1 1008518
05:00+24ene4986100 2.8 1008686
08:00+24e51182100 2.9 1010667
11:00+26ene5107795 0.3 1010876
14:00+28ene696870 0.5 10071019
17:00+27ene6117096 0.0 1007873
20:00+25ene4107597 0.0 1010702